Location: 81360 Arifat, France
(43.7204°N, 2.3408°E)
Time: 11:20:01
(UTC+02:00)

GHALIB - Pass Details

Date: 29 May 2022
Orbit: 510 x 523 km, 97.6° (Epoch: 02 July)

Event Time Altitude Azimuth Distance (km) Brightness Sun altitude
Exits shadow 02:44:37 21° 99° (E) 1,201 ? -23.4°
Maximum altitude 02:45:51 25° 69° (ENE) 1,073 ? -23.4°
Drops below altitude 10° 02:49:00 10° 13° (NNE) 1,764 ? -23.2°
Sets 02:51:21 0° 360° (N) 2,655 ? -23.1°
